San Martin, CA

7:45 AM PST on December 08, 2016 (GMT -0800)
San Martin

Weather History for KE16 - May, 2014

Change the Weather History Date:

Monday, May 19, 2014

  Actual Average (KWVI) Record (KWVI)
Temperature  
Mean Temperature 57 °F -  
Max Temperature 68 °F 68 °F 82 °F (2003)
Min Temperature 46 °F 48 °F 44 °F (2003)
Degree Days  
Heating Degree Days 8    
Growing Degree Days 7 (Base 50)    
Moisture  
Dew Point 45 °F    
Average Humidity 62    
Maximum Humidity 93    
Minimum Humidity 42    
Precipitation  
Precipitation 0.00 in - - ()
Sea Level Pressure  
Sea Level Pressure 29.97 in    
Wind  
Wind Speed 6 mph (NW)    
Max Wind Speed 20 mph    
Max Gust Speed 28 mph    
Visibility 10 miles    
Events      
Averages and records for this station are not official NWS values.
T = Trace of Precipitation, MM = Missing Value Source: NWS Daily Summary

Daily Weather History Graph

Daily Weather History Graph

Search for Another Location

Airport or City:

Trip Planner

Search our weather history database for the weather conditions in past years. The results will help you decide how hot, cold, wet, or windy it might be!

Date:

Astronomy

May. 19, 2014 Rise Set
Actual Time 5:55 AM PDT 8:11 PM PDT
Civil Twilight 5:25 AM PDT 8:40 PM PDT
Nautical Twilight 4:49 AM PDT 9:16 PM PDT
Astronomical Twilight 4:10 AM PDT 9:56 PM PDT
Moon 12:04 AM PDT (5/19) 10:56 AM PDT (5/19)
Length of Visible Light 15h 14m
Length of Day
14h 16m
Waning Gibbous, 70% of the Moon is Illuminated
May 19
Waning Gibbous
May 21
Last Quarter
May 28
New
Jun 5
First Quarter
Jun 12
Full

Hourly Weather History & Observations

Time (PDT) Temp. Dew Point Humidity Pressure Visibility Wind Dir Wind Speed Gust Speed Precip Events Conditions
12:15 AM 55.4 °F 46.4 °F 72% 30.00 in 10.0 mi WNW 5.8 mph - N/A   Unknown
12:35 AM 55.4 °F 44.6 °F 67% 30.00 in 10.0 mi NW 4.6 mph - N/A   Unknown
12:55 AM 53.6 °F 44.6 °F 72% 30.00 in 10.0 mi NNE 3.5 mph - N/A   Unknown
1:15 AM 53.6 °F 44.6 °F 72% 29.99 in 10.0 mi WNW 4.6 mph - N/A   Unknown
1:35 AM 53.6 °F 44.6 °F 72% 29.99 in 10.0 mi Calm Calm - N/A   Unknown
1:55 AM 51.8 °F 44.6 °F 76% 29.99 in 10.0 mi Calm Calm - N/A   Unknown
2:35 AM 50.0 °F 44.6 °F 82% 29.98 in 10.0 mi Calm Calm - N/A   Unknown
2:55 AM 50.0 °F 44.6 °F 82% 29.98 in 10.0 mi Calm Calm - N/A   Unknown
3:15 AM 50.0 °F 44.6 °F 82% 29.98 in 10.0 mi Calm Calm - N/A   Unknown
3:35 AM 50.0 °F 44.6 °F 82% 29.97 in 10.0 mi Calm Calm - N/A   Unknown
3:55 AM 48.2 °F 44.6 °F 87% 29.98 in 10.0 mi Calm Calm - N/A   Unknown
4:15 AM 48.2 °F 44.6 °F 87% 29.98 in 10.0 mi East 3.5 mph - N/A   Unknown
4:35 AM 50.0 °F 44.6 °F 82% 29.98 in 10.0 mi South 3.5 mph - N/A   Unknown
4:55 AM 48.2 °F 44.6 °F 87% 29.98 in 10.0 mi Calm Calm - N/A   Unknown
5:15 AM 48.2 °F 44.6 °F 87% 29.98 in 10.0 mi Calm Calm - N/A   Unknown
5:35 AM 46.4 °F 44.6 °F 93% 29.99 in 10.0 mi Calm Calm - N/A   Unknown
6:35 AM 48.2 °F 44.6 °F 87% 29.99 in 10.0 mi Calm Calm - N/A   Unknown
7:35 AM 51.8 °F 48.2 °F 88% 30.00 in 10.0 mi SE 4.6 mph - N/A   Unknown
7:55 AM 53.6 °F 48.2 °F 82% 30.00 in 10.0 mi SE 5.8 mph - N/A   Unknown
8:15 AM 53.6 °F 48.2 °F 82% 30.00 in 10.0 mi Calm Calm - N/A   Unknown
8:35 AM 55.4 °F 48.2 °F 77% 30.00 in 10.0 mi South 3.5 mph - N/A   Partly Cloudy
8:55 AM 55.4 °F 48.2 °F 77% 30.01 in 10.0 mi SW 3.5 mph - N/A   Clear
9:15 AM 57.2 °F 48.2 °F 72% 30.01 in 10.0 mi NNE 3.5 mph - N/A   Clear
9:35 AM 57.2 °F 46.4 °F 67% 30.01 in 10.0 mi WNW 3.5 mph - N/A   Clear
9:55 AM 59.0 °F 46.4 °F 63% 30.00 in 10.0 mi WNW 8.1 mph - N/A   Clear
10:15 AM 60.8 °F 44.6 °F 55% 30.00 in 10.0 mi NW 10.4 mph 16.1 mph N/A   Clear
10:35 AM 62.6 °F 44.6 °F 52% 30.00 in 10.0 mi NNW 12.7 mph 19.6 mph N/A   Clear
10:55 AM 62.6 °F 44.6 °F 52% 30.00 in 10.0 mi NNW 9.2 mph 24.2 mph N/A   Clear
11:15 AM 64.4 °F 44.6 °F 49% 30.00 in 10.0 mi North 12.7 mph 18.4 mph N/A   Clear
11:35 AM 66.2 °F 44.6 °F 46% 29.99 in 10.0 mi NNW 16.1 mph 23.0 mph N/A   Clear
11:55 AM 66.2 °F 44.6 °F 46% 29.99 in 10.0 mi NNW 11.5 mph 19.6 mph N/A   Clear
12:15 PM 66.2 °F 44.6 °F 46% 29.99 in 10.0 mi NNW 12.7 mph 18.4 mph N/A   Clear
12:35 PM 68.0 °F 44.6 °F 43% 29.98 in 10.0 mi NW 10.4 mph 16.1 mph N/A   Clear
12:55 PM 68.0 °F 46.4 °F 46% 29.98 in 10.0 mi NNW 12.7 mph 19.6 mph N/A   Partly Cloudy
1:15 PM 68.0 °F 46.4 °F 46% 29.98 in 10.0 mi NNW 8.1 mph - N/A   Mostly Cloudy
1:35 PM 68.0 °F 44.6 °F 43% 29.97 in 10.0 mi North 8.1 mph - N/A   Overcast
1:55 PM 68.0 °F 46.4 °F 46% 29.97 in 10.0 mi Calm Calm - N/A   Overcast
2:15 PM 68.0 °F 48.2 °F 49% 29.96 in 10.0 mi SW 9.2 mph - N/A   Overcast
2:35 PM 68.0 °F 48.2 °F 49% 29.96 in 10.0 mi SSW 12.7 mph - N/A   Overcast
2:55 PM 68.0 °F 48.2 °F 49% 29.95 in 10.0 mi WNW 5.8 mph - N/A   Overcast
3:15 PM 68.0 °F 46.4 °F 46% 29.95 in 10.0 mi West 9.2 mph - N/A   Overcast
3:55 PM 68.0 °F 44.6 °F 43% 29.94 in 10.0 mi NNW 8.1 mph 17.3 mph N/A   Overcast
4:15 PM 68.0 °F 44.6 °F 43% 29.94 in 10.0 mi NW 13.8 mph 20.7 mph N/A   Overcast
4:35 PM 66.2 °F 44.6 °F 46% 29.93 in 10.0 mi NNW 12.7 mph 21.9 mph N/A   Overcast
4:55 PM 66.2 °F 44.6 °F 46% 29.94 in 10.0 mi NNW 16.1 mph 27.6 mph N/A   Mostly Cloudy
5:15 PM 66.2 °F 44.6 °F 46% 29.94 in 10.0 mi NW 18.4 mph 27.6 mph N/A   Unknown
5:35 PM 64.4 °F 44.6 °F 49% 29.94 in 10.0 mi NNW 16.1 mph 24.2 mph N/A   Unknown
5:55 PM 64.4 °F 41.0 °F 42% 29.93 in 10.0 mi NNW 19.6 mph 25.3 mph N/A   Unknown
6:15 PM 64.4 °F 42.8 °F 45% 29.93 in 10.0 mi NNW 13.8 mph - N/A   Unknown
6:35 PM 64.4 °F 42.8 °F 45% 29.93 in 10.0 mi NNW 15.0 mph 19.6 mph N/A   Unknown
6:55 PM 64.4 °F 44.6 °F 49% 29.93 in 10.0 mi NW 15.0 mph 20.7 mph N/A   Unknown
7:15 PM 64.4 °F 44.6 °F 49% 29.93 in 10.0 mi NW 13.8 mph 21.9 mph N/A   Unknown
7:35 PM 62.6 °F 44.6 °F 52% 29.94 in 10.0 mi NW 12.7 mph 19.6 mph N/A   Unknown
7:55 PM 62.6 °F 44.6 °F 52% 29.94 in 10.0 mi NW 10.4 mph - N/A   Unknown
8:10 PM 60.8 °F 44.6 °F 55% 29.94 in 10.0 mi WNW 12.7 mph 17.3 mph N/A   Unknown
8:35 PM 59.0 °F 44.6 °F 59% 29.95 in 10.0 mi NW 10.4 mph 19.6 mph N/A   Unknown
8:55 PM 59.0 °F 44.6 °F 59% 29.96 in 10.0 mi NW 10.4 mph 18.4 mph N/A   Unknown
9:15 PM 59.0 °F 44.6 °F 59% 29.96 in 10.0 mi NW 8.1 mph 18.4 mph N/A   Unknown
9:35 PM 57.2 °F 44.6 °F 63% 29.97 in 10.0 mi NW 5.8 mph - N/A   Unknown
9:55 PM 57.2 °F 44.6 °F 63% 29.98 in 10.0 mi NW 8.1 mph - N/A   Unknown
10:15 PM 57.2 °F 44.6 °F 63% 29.99 in 10.0 mi NW 6.9 mph - N/A   Unknown
10:35 PM 57.2 °F 44.6 °F 63% 29.99 in 10.0 mi West 4.6 mph - N/A   Unknown
10:55 PM 55.4 °F 44.6 °F 67% 29.99 in 10.0 mi West 3.5 mph - N/A   Unknown
11:15 PM 55.4 °F 44.6 °F 67% 29.99 in 10.0 mi West 3.5 mph - N/A   Unknown
11:35 PM 55.4 °F 44.6 °F 67% 29.98 in 10.0 mi West 3.5 mph - N/A   Unknown
11:55 PM 55.4 °F 44.6 °F 67% 29.98 in 10.0 mi Calm Calm - N/A   Unknown